Previsão horária em Plodovaya

Hoje, 4 Março, Quinta-feira

Tempo Temperatura Precipitação Vento Pressão Humidade
00:00 -1°C° 0 mm 4 m/s 752 mmHg 87%
01:00 -1°C° 0 mm 4 m/s 751 mmHg 88%
02:00 -1°C° 0 mm 3 m/s 750 mmHg 90%
03:00 -1°C° 0 mm 3 m/s 749 mmHg 91%
04:00 -1°C° 0 mm 3 m/s 749 mmHg 92%
05:00 -1°C° 0 mm 3 m/s 748 mmHg 92%
06:00 -2°C° 0 mm 4 m/s 747 mmHg 93%
07:00 -2°C° 0 mm 4 m/s 747 mmHg 94%
08:00 -2°C° 0 mm 4 m/s 746 mmHg 94%
09:00 -1°C° 0 mm 4 m/s 746 mmHg 95%
10:00 0°C° 0 mm 4 m/s 746 mmHg 95%
11:00 0°C° 0 mm 5 m/s 746 mmHg 96%
12:00 0°C° 0 mm 5 m/s 746 mmHg 95%
13:00 0°C° 0 mm 5 m/s 746 mmHg 93%
14:00 0°C° 0 mm 5 m/s 746 mmHg 91%
15:00 0°C° 0 mm 4 m/s 746 mmHg 92%
16:00 0°C° 0 mm 4 m/s 746 mmHg 93%
17:00 0°C° 0 mm 4 m/s 746 mmHg 94%
18:00 0°C° 0.3 mm 3 m/s 747 mmHg 95%
19:00 -1°C° 0.3 mm 3 m/s 747 mmHg 95%
20:00 -1°C° 0.3 mm 3 m/s 747 mmHg 95%
21:00 -2°C° 0 mm 3 m/s 748 mmHg 94%
22:00 -2°C° 0 mm 3 m/s 748 mmHg 92%
23:00 -2°C° 0 mm 2 m/s 748 mmHg 91%

Amanhã, 5 Março, Sexta-feira

Tempo Temperatura Precipitação Vento Pressão Humidade
00:00 -3°C° 0 mm 2 m/s 749 mmHg 89%
01:00 -4°C° 0 mm 2 m/s 749 mmHg 88%
02:00 -5°C° 0 mm 2 m/s 749 mmHg 86%
03:00 -5°C° 0 mm 2 m/s 749 mmHg 86%
04:00 -5°C° 0 mm 2 m/s 750 mmHg 85%
05:00 -6°C° 0 mm 2 m/s 750 mmHg 85%
06:00 -5°C° 0 mm 2 m/s 750 mmHg 84%
07:00 -5°C° 0 mm 2 m/s 750 mmHg 82%
08:00 -5°C° 0 mm 2 m/s 751 mmHg 81%
09:00 -5°C° 0 mm 3 m/s 751 mmHg 76%
10:00 -2°C° 0 mm 3 m/s 751 mmHg 71%
11:00 -2°C° 0 mm 4 m/s 752 mmHg 66%
12:00 -2°C° 0 mm 4 m/s 752 mmHg 59%
13:00 -1°C° 0 mm 5 m/s 752 mmHg 53%
14:00 -1°C° 0 mm 5 m/s 752 mmHg 46%
15:00 -1°C° 0 mm 4 m/s 753 mmHg 47%
16:00 -1°C° 0 mm 3 m/s 753 mmHg 48%
17:00 -1°C° 0 mm 2 m/s 753 mmHg 48%
18:00 -2°C° 0 mm 2 m/s 753 mmHg 51%
19:00 -3°C° 0 mm 2 m/s 754 mmHg 53%
20:00 -2°C° 0 mm 1 m/s 754 mmHg 55%
21:00 -3°C° 0 mm 2 m/s 755 mmHg 57%
22:00 -3°C° 0 mm 2 m/s 755 mmHg 59%
23:00 -4°C° 0 mm 3 m/s 755 mmHg 61%

Depois de amanhã, 6 Março, Sábado

Tempo Temperatura Precipitação Vento Pressão Humidade
00:00 -4°C° 0 mm 3 m/s 756 mmHg 66%
01:00 -4°C° 0 mm 4 m/s 756 mmHg 72%
02:00 -5°C° 0 mm 4 m/s 756 mmHg 78%
03:00 -5°C° 0 mm 4 m/s 756 mmHg 77%
04:00 -7°C° 0 mm 4 m/s 756 mmHg 76%
05:00 -7°C° 0 mm 5 m/s 757 mmHg 75%
06:00 -7°C° 0 mm 5 m/s 757 mmHg 73%
07:00 -7°C° 0 mm 5 m/s 758 mmHg 70%
08:00 -7°C° 0 mm 5 m/s 758 mmHg 68%
09:00 -5°C° 0 mm 4 m/s 759 mmHg 62%
10:00 -5°C° 0 mm 4 m/s 759 mmHg 57%
11:00 -4°C° 0 mm 4 m/s 759 mmHg 51%
12:00 -3°C° 0 mm 4 m/s 759 mmHg 48%
13:00 -2°C° 0 mm 4 m/s 759 mmHg 46%
14:00 -2°C° 0 mm 4 m/s 759 mmHg 43%
15:00 -2°C° 0 mm 4 m/s 759 mmHg 46%
16:00 -2°C° 0 mm 4 m/s 758 mmHg 50%
17:00 -2°C° 0 mm 4 m/s 758 mmHg 53%
18:00 -2°C° 0 mm 4 m/s 757 mmHg 56%
19:00 -3°C° 0 mm 4 m/s 757 mmHg 60%
20:00 -5°C° 0 mm 5 m/s 756 mmHg 63%
21:00 -4°C° 0 mm 5 m/s 756 mmHg 63%
22:00 -4°C° 0 mm 6 m/s 755 mmHg 62%
23:00 -4°C° 0 mm 7 m/s 754 mmHg 62%

7 Março, Domingo

Tempo Temperatura Precipitação Vento Pressão Humidade
00:00 -4°C° 0 mm 7 m/s 753 mmHg 66%
01:00 -5°C° 0 mm 8 m/s 753 mmHg 70%
02:00 -4°C° 0 mm 8 m/s 752 mmHg 74%
03:00 -4°C° 0.1 mm 9 m/s 751 mmHg 78%
04:00 -4°C° 0.1 mm 9 m/s 750 mmHg 83%
05:00 -4°C° 0.1 mm 9 m/s 749 mmHg 88%
06:00 -4°C° 0 mm 9 m/s 749 mmHg 86%
07:00 -4°C° 0 mm 9 m/s 749 mmHg 84%
08:00 -3°C° 0 mm 9 m/s 748 mmHg 83%
09:00 -3°C° 0.2 mm 9 m/s 748 mmHg 85%
10:00 -2°C° 0.2 mm 8 m/s 748 mmHg 87%
11:00 -2°C° 0.2 mm 8 m/s 748 mmHg 89%
12:00 -2°C° 0.6 mm 8 m/s 748 mmHg 90%
13:00 -3°C° 0.6 mm 9 m/s 748 mmHg 91%
14:00 -3°C° 0.6 mm 9 m/s 747 mmHg 93%
15:00 -3°C° 0.2 mm 9 m/s 747 mmHg 91%
16:00 -3°C° 0.2 mm 9 m/s 746 mmHg 89%
17:00 -3°C° 0.2 mm 9 m/s 746 mmHg 88%
18:00 -4°C° 0.7 mm 8 m/s 746 mmHg 86%
19:00 -3°C° 0.7 mm 7 m/s 747 mmHg 84%
20:00 -4°C° 0.7 mm 6 m/s 747 mmHg 82%
21:00 -5°C° 0 mm 5 m/s 747 mmHg 81%
22:00 -5°C° 0 mm 5 m/s 748 mmHg 79%
23:00 -6°C° 0 mm 5 m/s 748 mmHg 77%

8 Março, Segunda-feira

Tempo Temperatura Precipitação Vento Pressão Humidade
00:00 -5°C° 0 mm 4 m/s 748 mmHg 79%
01:00 -5°C° 0 mm 4 m/s 748 mmHg 80%
02:00 -5°C° 0 mm 4 m/s 748 mmHg 81%
03:00 -7°C° 0 mm 4 m/s 748 mmHg 82%
04:00 -6°C° 0 mm 3 m/s 748 mmHg 83%
05:00 -6°C° 0 mm 3 m/s 748 mmHg 84%
06:00 -6°C° 0 mm 3 m/s 748 mmHg 84%
07:00 -6°C° 0 mm 3 m/s 749 mmHg 83%
08:00 -5°C° 0 mm 3 m/s 749 mmHg 82%
09:00 -5°C° 0.1 mm 3 m/s 749 mmHg 83%
10:00 -4°C° 0.1 mm 3 m/s 749 mmHg 83%
11:00 -2°C° 0.1 mm 3 m/s 749 mmHg 84%
12:00 -3°C° 0.2 mm 4 m/s 749 mmHg 77%
13:00 -4°C° 0.2 mm 5 m/s 749 mmHg 71%
14:00 -2°C° 0.2 mm 5 m/s 750 mmHg 65%
15:00 -4°C° 0.1 mm 5 m/s 750 mmHg 66%
16:00 -4°C° 0.1 mm 5 m/s 750 mmHg 67%
17:00 -4°C° 0.1 mm 5 m/s 750 mmHg 68%
18:00 -5°C° 0 mm 5 m/s 751 mmHg 70%
19:00 -6°C° 0 mm 5 m/s 752 mmHg 72%
20:00 -7°C° 0 mm 4 m/s 752 mmHg 74%
21:00 -8°C° 0 mm 4 m/s 753 mmHg 74%
22:00 -8°C° 0 mm 4 m/s 754 mmHg 74%
23:00 -9°C° 0 mm 4 m/s 754 mmHg 74%

9 Março, Terça-feira

Tempo Temperatura Precipitação Vento Pressão Humidade
00:00 -9°C° 0 mm 4 m/s 755 mmHg 74%
01:00 -9°C° 0 mm 4 m/s 755 mmHg 75%
02:00 -9°C° 0 mm 4 m/s 756 mmHg 76%
03:00 -9°C° 0 mm 3 m/s 756 mmHg 76%
04:00 -9°C° 0 mm 3 m/s 756 mmHg 77%
05:00 -9°C° 0 mm 3 m/s 757 mmHg 77%
06:00 -9°C° 0 mm 3 m/s 757 mmHg 77%
07:00 -9°C° 0 mm 3 m/s 757 mmHg 76%
08:00 -10°C° 0 mm 3 m/s 758 mmHg 76%
09:00 -9°C° 0 mm 3 m/s 758 mmHg 68%
10:00 -8°C° 0 mm 3 m/s 759 mmHg 61%
11:00 -6°C° 0 mm 2 m/s 759 mmHg 53%
12:00 -6°C° 0 mm 2 m/s 759 mmHg 51%
13:00 -5°C° 0 mm 2 m/s 759 mmHg 48%
14:00 -4°C° 0 mm 2 m/s 759 mmHg 45%
15:00 -4°C° 0 mm 2 m/s 759 mmHg 46%
16:00 -4°C° 0 mm 2 m/s 759 mmHg 48%
17:00 -4°C° 0 mm 2 m/s 759 mmHg 49%
18:00 -3°C° 0 mm 1 m/s 760 mmHg 54%
19:00 -4°C° 0 mm 1 m/s 760 mmHg 59%
20:00 -4°C° 0 mm 1 m/s 760 mmHg 64%
21:00 -4°C° 0 mm 1 m/s 761 mmHg 64%
22:00 -6°C° 0 mm 1 m/s 761 mmHg 65%
23:00 -6°C° 0 mm 1 m/s 761 mmHg 65%
Mostrar mais

Necessitamos do seu Consentimento

A Meteoprog e os seus Fornecedores de Serviços podem armazenar e aceder a dados pessoais como cookies, identificadores do dispositivo ou outras tecnologias semelhantes existentes no seu dispositivo e processar estes dados para personalizar conteúdos e anúncios, assim como funcionalidades nas redes sociais e análise de tráfego.

  • Armazenar e/ou aceder a informações no seu dispositivo

    Os cookies, identificadores do dispositivo ou outras informações podem ser armazenados ou acedidos no seu dispositivo, para os fins acima indicados.

  • Anúncios e conteúdos personalizados, medição de anúncios e conteúdos, dados sobre o público-alvo e desenvolvimento de produtos

    Os anúncios e os conteúdos podem ser personalizados com base num perfil. Podem ser adicionados dados adicionais para uma maior personalização dos anúncios e dos conteúdos. A eficácia dos anúncios e dos conteúdos pode ser medida. Podem ser obtidas informações sobre o público que visualizou os anúncios e os conteúdos. Estes dados podem ser usados para desenvolver ou melhorar sistemas, softwares ou a experiência do utilizador.

Ao clicar em "Eu concordo”, permitirá o uso de cookies, identificadores do dispositivo e web beacons mencionados ou outras tecnologias semelhantes. As configurações do navegador do seu dispositivo podem ser alteradas.

Para certos fins, podem ser invocados interesses legítimos ao invés de consentimento. Pode ler mais informação sobre este assunto na nossa Política de Privacidade e Cookies.